Teesside, United Kingdom

10:09 AM BST on May 27, 2017 (GMT +0100)
Teesside

Weather History for EGNV - November, 2013

Change the Weather History Date:

Tuesday, November 26, 2013

  Actual Average Record
Temperature  
Mean Temperature 42 °F -  
Max Temperature 50 °F 44 °F 57 °F (2011)
Min Temperature 35 °F 34 °F 24 °F (2010)
Degree Days  
Heating Degree Days 24    
Moisture  
Dew Point 39 °F    
Average Humidity 84    
Maximum Humidity 93    
Minimum Humidity 71    
Precipitation  
Precipitation 0.00 in - - ()
Sea Level Pressure  
Sea Level Pressure 30.60 in    
Wind  
Wind Speed 6 mph ()    
Max Wind Speed 10 mph    
Max Gust Speed -    
Visibility 6.2 miles    
Events Rain    
Averages and records for this station are not official NWS values.
T = Trace of Precipitation, MM = Missing Value Source: Averaged Metar Reports

Daily Weather History Graph

Daily Weather History Graph

Search for Another Location

Airport or City:

Trip Planner

Search our weather history database for the weather conditions in past years. The results will help you decide how hot, cold, wet, or windy it might be!

Date:

Astronomy

Nov. 26, 2013 Rise Set
Actual Time 7:55 AM GMT 3:49 PM GMT
Civil Twilight 7:13 AM GMT 4:31 PM GMT
Nautical Twilight 6:28 AM GMT 5:17 PM GMT
Astronomical Twilight 5:45 AM GMT 6:00 PM GMT
Moon No Moon Rise 12:48 PM GMT (11/26)
Length of Visible Light 9h 18m
Length of Day
7h 53m
Last Quarter, 43% of the Moon is Illuminated
Nov 26
Last Quarter
Dec 3
New
Dec 9
First Quarter
Dec 17
Full
Dec 25
Last Quarter

Hourly Weather History & Observations

Time (GMT) Temp. Windchill Dew Point Humidity Pressure Visibility Wind Dir Wind Speed Gust Speed Precip Events Conditions
5:50 AM 35.6 °F 30.7 °F 33.8 °F 93% 30.66 in 6.2 mi SSW 5.8 mph - N/A   Mostly Cloudy
6:20 AM 37.4 °F 32.1 °F 33.8 °F 87% 30.66 in 6.2 mi SW 6.9 mph - N/A   Mostly Cloudy
6:50 AM 35.6 °F 30.7 °F 33.8 °F 93% 30.66 in 6.2 mi SW 5.8 mph - N/A   Mostly Cloudy
7:20 AM 37.4 °F 33.8 °F 33.8 °F 87% 30.66 in 6.2 mi WSW 4.6 mph - N/A   Mostly Cloudy
7:50 AM 37.4 °F 33.8 °F 33.8 °F 87% 30.66 in 6.2 mi WSW 4.6 mph - N/A   Mostly Cloudy
8:20 AM 37.4 °F 33.8 °F 33.8 °F 87% 30.66 in 6.2 mi SSW 4.6 mph - N/A   Mostly Cloudy
8:50 AM 37.4 °F 32.8 °F 33.8 °F 87% 30.66 in 6.2 mi WSW 5.8 mph - N/A   Mostly Cloudy
9:20 AM 37.4 °F 33.8 °F 33.8 °F 87% 30.66 in 6.2 mi SSW 4.6 mph - N/A   Partly Cloudy
9:50 AM 37.4 °F 32.1 °F 33.8 °F 87% 30.66 in 6.2 mi SW 6.9 mph - N/A   Partly Cloudy
10:20 AM 39.2 °F 35.0 °F 35.6 °F 87% 30.66 in 6.2 mi SW 5.8 mph - N/A   Partly Cloudy
10:50 AM 41.0 °F 37.1 °F 37.4 °F 87% 30.66 in 6.2 mi SSW 5.8 mph - N/A   Partly Cloudy
11:20 AM 41.0 °F 38.0 °F 37.4 °F 87% 30.63 in 6.2 mi SSW 4.6 mph - N/A   Partly Cloudy
11:50 AM 42.8 °F 39.3 °F 39.2 °F 87% 30.63 in 6.2 mi SSW 5.8 mph - N/A   Partly Cloudy
12:20 PM 44.6 °F 41.4 °F 39.2 °F 81% 30.63 in 6.2 mi SW 5.8 mph - N/A   Scattered Clouds
12:50 PM 46.4 °F 43.5 °F 39.2 °F 76% 30.63 in 6.2 mi WSW 5.8 mph - N/A   Scattered Clouds
1:20 PM 46.4 °F 42.4 °F 41.0 °F 81% 30.60 in 6.2 mi SW 8.1 mph - N/A   Partly Cloudy
1:50 PM 46.4 °F 41.5 °F 39.2 °F 76% 30.60 in 6.2 mi SW 10.4 mph - N/A   Partly Cloudy
2:20 PM 48.2 °F - 39.2 °F 71% 30.60 in 6.2 mi WSW 9.2 mph - N/A   Partly Cloudy
2:50 PM 48.2 °F - 41.0 °F 76% 30.57 in 6.2 mi West 9.2 mph - N/A   Partly Cloudy
3:20 PM 48.2 °F - 41.0 °F 76% 30.57 in 6.2 mi WSW 9.2 mph - N/A   Partly Cloudy
3:50 PM 48.2 °F - 41.0 °F 76% 30.57 in 6.2 mi WSW 6.9 mph - N/A   Partly Cloudy
4:20 PM 46.4 °F 42.9 °F 41.0 °F 81% 30.57 in 6.2 mi WSW 6.9 mph - N/A   Partly Cloudy
4:50 PM 44.6 °F 40.7 °F 41.0 °F 87% 30.57 in 6.2 mi SW 6.9 mph - N/A   Partly Cloudy
5:20 PM 44.6 °F 41.4 °F 41.0 °F 87% 30.57 in 6.2 mi SSW 5.8 mph - N/A   Partly Cloudy
5:50 PM 44.6 °F 40.7 °F 41.0 °F 87% 30.54 in 6.2 mi SSW 6.9 mph - N/A   Partly Cloudy
6:20 PM 46.4 °F 41.9 °F 42.8 °F 87% 30.54 in 6.2 mi SW 9.2 mph - N/A Rain Light Rain
6:50 PM 46.4 °F 41.9 °F 42.8 °F 87% 30.54 in 6.2 mi SW 9.2 mph - N/A Rain Light Rain
7:20 PM 48.2 °F - 42.8 °F 82% 30.54 in 6.2 mi WSW 9.2 mph - N/A   Scattered Clouds
7:50 PM 46.4 °F 42.4 °F 42.8 °F 87% 30.54 in 6.2 mi WSW 8.1 mph - N/A   Scattered Clouds
8:20 PM 48.2 °F - 42.8 °F 82% 30.51 in 6.2 mi WSW 9.2 mph - N/A   Scattered Clouds
8:50 PM 48.2 °F - 42.8 °F 82% 30.51 in 6.2 mi WSW 8.1 mph - N/A   Scattered Clouds
9:20 PM 48.2 °F - 44.6 °F 87% 30.51 in 6.2 mi West 8.1 mph - N/A   Scattered Clouds
9:50 PM 50.0 °F - 44.6 °F 82% 30.51 in 6.2 mi West 9.2 mph - N/A   Scattered Clouds